Weather in Klimkovka

Russia / Kirov Oblast     58°53′37″N   51°13′47″E
temp.,
°C
wind,
m/s
gust,
m/s
humid.,
%
clouds,
%
prec.,
mm/h
press.,
hPa
HPBL,
m
26 february, fri
fri2600:00−24sse389657 0.0 1022229
03:00−24sse379778 0.0 1022234
06:00−25sse3897100 0.0 1021254
09:00−22sse3795100 0.0 1020325
12:00−19sse4892100 0.0 1019469
15:00−17sse51091100 0.0 1016591
18:00−19se51393100 0.0 1013561
21:00−19se51492100 0.1 1012534
27 february, sat
sat2700:00−18se51391100 0.0 1008540
03:00−18ese51291100 0.0 1008582
06:00−17ese41193100 0.3 1006657
09:00−15ese4993100 0.8 1007706
12:00−13e4788100 0.2 1006771
15:00−12e4789100 0.3 1007722
18:00−15ene2796100 0.1 1008274
21:00−18ene379688 0.1 1009161
28 february, sun
sun2800:00−20ene36980 0.0 1009136
03:00−23ne35980 0.0 1011126
06:00−25ne25980 0.0 1012103
09:00−22ne359610 0.0 1013252
12:00−17ne359267 0.0 1013416
15:00−15nne369183 0.0 1014497
18:00−19nne2398100 0.0 101567
21:00−21nne239990 0.0 101846
1 march, mon
mon100:00−22nne22990 0.0 101921
03:00−22n22990 0.0 102020
06:00−23n12990 0.0 102220
09:00−17nw01930 0.0 1022131
12:00−12w238652 0.0 1021350
15:00−10wsw359055 0.0 1019426
18:00−15sw399544 0.0 1017237
21:00−14sw4109572 0.0 1015322
2 march, tue
tue200:00−13ssw51195100 0.1 1011383
03:00−11sw51194100 1.0 1008490
06:00−10sw41095100 1.0 1005451
09:00−8ssw4895100 1.8 1004372
12:00−4sw3695100 0.3 1002369
15:00−2sw359498 0.4 1001426
18:00−3ssw3795100 0.1 1001235
21:00−3wsw2697100 0.8 1001267